Wind_Speed
12 13 13 14 15 17 18 20 23 25 28 30 31 31 31 30 30 29 29 27 27 26 26 25 24 24 25 26 26 26 26 25 25 26 27 28 28 28 28 27 27 27 26 24 23 22 21 20 20 20 20 19 19 18 18 17 17 16 15 15 14 14 13 13 12 11 10 9 9 8 8 7 6 5 5 4 3 3 3 3 3 3 4 5 6
12 12 13 14 15 17 18 20 23 25 28 30 31 31 30 30 29 28 27 26 25 25 24 24 24 24 24 25 25 25 25 25 25 26 27 28 28 27 27 26 24 21 19 18 18 18 18 18 17 17 16 15 15 14 13 13 12 11 10 10 10 9 9 8 7 6 6 5 4 4 5 5 4 3 2 2 2 1 1 3 4 5 6 7 8
12 13 13 14 16 17 19 21 22 25 27 30 30 30 30 29 28 27 25 25 25 25 24 24 24 24 23 24 25 25 25 25 25 26 27 27 27 25 24 21 19 17 16 18 19 19 18 18 16 14 13 12 12 12 11 11 11 10 9 8 7 7 6 5 5 5 5 4 3 3 4 4 3 3 3 3 3 3 3 5 6 8 8 9 10
12 12 13 14 16 17 19 21 22 24 26 28 30 29 29 28 27 26 25 24 25 25 25 24 24 23 23 23 23 23 23 23 24 25 25 25 23 21 19 17 16 16 17 18 18 17 16 14 12 11 10 10 10 9 9 9 9 9 8 7 6 5 4 4 3 4 3 2 2 0 1 1 2 4 5 6 6 7 8 9 10 11 11 12 12
12 12 12 13 15 16 18 20 22 23 24 26 27 28 27 26 25 24 24 24 24 25 25 25 24 23 22 22 21 21 21 20 21 22 22 22 20 18 16 15 14 14 14 14 14 12 9 7 6 6 6 7 7 6 6 6 6 6 5 5 4 3 2 2 2 0 1 2 3 3 4 4 5 6 7 8 9 10 12 13 14 14 14 14 14
12 12 12 12 13 15 17 18 20 21 22 23 24 25 25 24 24 24 24 23 23 23 24 24 23 22 21 20 19 18 18 18 18 19 19 19 18 16 14 13 11 10 10 9 8 6 5 3 1 1 2 2 2 2 1 3 5 5 5 4 4 3 3 3 3 4 4 4 5 5 6 7 8 9 10 11 12 12 14 15 15 15 14 15 15
12 12 13 13 13 14 16 17 18 19 20 21 22 23 24 24 24 24 24 23 23 23 23 23 22 21 19 18 17 17 16 16 15 16 17 16 16 14 13 11 10 9 8 6 5 5 4 3 2 2 3 4 5 5 6 7 7 6 5 4 5 6 8 8 8 9 9 9 9 9 10 11 11 12 12 13 13 14 14 15 15 16 16 17 17
12 12 12 13 14 15 15 16 17 18 19 19 20 21 22 23 23 24 24 23 22 22 22 22 21 20 19 17 16 16 15 15 14 14 14 14 14 13 12 11 9 8 7 7 6 6 6 6 5 6 7 8 9 9 10 9 8 7 6 6 8 9 10 12 13 12 12 12 12 13 14 16 16 15 14 14 14 15 16 16 17 18 19 19 20
14 13 13 13 13 14 15 16 16 16 17 17 18 18 19 20 21 22 23 22 22 21 21 21 21 20 19 18 17 16 15 14 14 14 14 14 13 12 12 11 10 10 9 9 9 9 9 10 10 11 12 12 12 12 12 12 11 11 11 11 12 13 14 14 14 15 15 16 16 17 18 19 20 19 18 18 19 19 19 19 19 20 20 20 21
18 16 16 15 15 14 14 14 15 15 15 16 16 16 17 18 19 20 21 21 20 20 19 19 20 20 19 19 18 17 16 15 14 14 14 14 14 14 14 13 13 13 12 12 12 13 13 14 15 16 16 16 15 15 15 15 15 15 16 16 16 17 17 17 16 15 17 18 19 20 21 21 22 22 23 25 26 25 23 22 21 22 22 23 24
17 17 17 16 16 16 15 15 15 14 14 15 16 17 17 17 18 18 19 19 19 19 19 18 19 19 19 18 18 17 17 15 15 14 14 14 15 15 15 15 15 15 15 15 16 17 17 18 18 19 19 19 19 19 19 18 18 18 19 19 20 20 20 20 18 17 18 19 21 22 23 24 25 27 29 31 31 29 27 26 26 26 27 28 29
16 16 17 17 15 14 14 15 15 15 15 15 16 18 18 19 19 19 19 19 19 20 20 19 19 19 19 18 18 18 17 17 16 16 16 16 16 17 17 17 18 18 18 19 20 21 21 21 21 21 20 21 21 22 22 21 21 22 22 22 22 22 21 21 22 22 22 22 22 23 25 26 26 28 32 34 35 32 30 31 33 32 31 31 32
19 19 19 18 16 13 11 12 14 16 17 17 18 18 18 18 19 20 20 20 20 20 20 20 20 20 19 19 19 19 19 19 18 18 18 18 18 19 19 20 20 20 20 21 23 25 25 24 23 23 23 23 23 24 24 24 25 25 25 24 24 23 23 23 24 26 27 27 26 25 26 28 29 29 32 36 38 38 37 38 37 34 32 32 33
24 23 21 19 18 16 14 14 15 15 14 14 14 14 15 15 16 17 19 20 20 20 20 20 20 20 20 20 20 20 20 20 20 20 20 20 20 21 21 22 22 22 22 24 28 30 29 26 25 26 26 25 25 27 27 28 28 28 28 27 27 26 26 26 27 29 30 30 30 28 29 31 32 34 35 36 39 40 40 42 39 35 35 36 38
28 26 24 22 22 21 20 19 18 16 14 12 10 10 12 13 14 15 17 18 19 21 21 22 21 21 22 22 22 22 22 22 23 23 23 23 23 23 24 24 24 25 26 28 32 33 32 30 28 28 29 29 28 29 29 30 31 31 31 30 30 31 30 30 31 32 32 32 32 32 33 34 35 37 38 40 41 41 41 43 43 42 42 44 45
30 28 27 27 25 24 25 24 22 19 17 17 16 16 15 15 16 17 17 19 20 21 22 23 23 23 24 24 24 24 24 25 26 26 26 26 25 26 26 26 27 27 29 31 33 33 32 32 32 31 31 31 30 30 31 33 34 34 34 33 34 35 35 35 36 36 36 36 37 39 41 41 40 39 40 42 45 46 46 48 49 49 49 50 49
32 31 30 29 28 28 28 28 26 23 23 22 22 22 21 20 19 19 19 20 20 22 23 23 23 24 24 24 24 24 25 26 27 27 27 27 27 27 28 28 28 28 29 31 33 34 33 32 33 33 34 34 34 33 34 35 36 36 37 37 38 39 40 41 41 41 40 40 42 44 46 46 45 44 43 44 47 49 51 52 53 53 53 52 52
35 34 32 31 30 31 31 30 29 29 28 27 25 24 23 23 22 22 22 21 21 23 24 24 25 25 25 24 24 25 26 28 28 28 28 28 29 30 30 30 30 31 31 32 33 35 35 34 33 33 35 36 37 37 38 39 40 40 40 41 43 44 45 46 47 46 45 45 46 48 49 49 50 50 50 50 51 52 54 55 56 56 56 56 56
39 37 36 34 33 33 33 32 33 33 32 30 28 27 26 26 26 26 25 25 25 26 26 27 28 28 27 26 26 27 28 29 29 29 30 31 31 32 32 33 33 34 34 34 35 37 38 37 35 35 36 37 39 40 41 43 45 46 46 46 47 49 49 50 51 51 50 49 51 53 54 54 54 56 56 56 56 57 58 60 60 60 60 61 62
42 41 39 38 36 34 34 35 36 37 35 32 30 30 29 29 29 30 30 29 29 30 29 29 30 31 32 33 33 32 32 32 31 32 33 33 33 34 36 37 38 38 37 36 38 40 40 40 40 40 41 42 44 45 46 47 49 51 52 53 53 53 53 53 54 55 54 53 54 57 58 58 58 59 59 59 60 61 62 63 64 64 64 64 65
44 43 42 41 39 37 37 37 39 39 37 34 33 32 32 31 31 33 33 32 31 32 31 30 30 32 34 35 36 36 36 36 35 35 35 36 37 38 40 40 41 42 41 40 42 45 44 44 44 44 45 46 48 50 51 53 54 56 57 57 57 56 55 54 55 56 55 55 56 59 60 61 61 61 61 62 64 64 65 66 67 68 68 68 68
46 45 44 43 42 41 40 40 40 40 38 35 33 33 31 30 31 33 35 36 37 36 36 34 33 34 35 35 35 36 37 37 38 39 39 40 42 44 44 42 42 43 43 44 47 49 49 49 49 49 50 50 50 51 52 54 55 57 57 57 56 56 56 56 56 57 57 57 57 60 62 63 64 65 64 65 66 67 67 68 68 69 70 70 70
49 48 48 48 47 45 44 43 41 40 39 34 31 31 31 31 32 34 36 39 41 40 40 39 38 37 38 37 37 38 40 41 42 43 43 44 47 49 48 48 48 47 46 47 50 53 53 52 52 52 52 53 53 53 53 53 54 55 56 56 56 57 57 57 58 58 59 59 60 61 63 64 65 66 66 66 67 68 68 69 69 70 71 72 73
53 53 53 53 52 50 49 48 45 44 41 35 31 31 33 35 38 39 39 42 44 43 42 42 42 42 42 42 41 43 45 46 47 49 49 49 50 52 52 52 51 49 48 48 49 51 53 54 54 54 55 55 55 55 55 55 55 56 57 58 59 59 60 60 60 61 62 63 63 64 64 65 66 66 67 68 69 70 71 72 73 74 75 75 76
57 57 58 57 56 54 53 51 50 48 46 41 37 34 34 36 40 42 42 42 43 43 44 45 45 45 45 45 46 46 47 48 50 51 51 51 51 53 54 55 53 51 51 51 52 52 53 54 55 56 57 58 57 57 58 58 58 59 59 59 59 60 61 61 62 63 64 65 66 66 67 67 69 70 71 73 74 75 77 78 79 80 80 80 81
57 58 59 59 58 56 54 54 56 55 51 46 44 41 37 34 36 41 44 43 41 41 43 44 46 47 48 50 50 49 48 49 50 51 51 51 52 53 54 56 57 56 55 55 55 56 56 56 57 57 58 59 59 60 62 63 63 64 63 63 62 62 63 64 65 67 68 69 70 71 72 72 73 74 76 78 79 81 82 83 84 85 86 87 89
57 58 60 60 59 57 56 57 60 59 55 50 48 47 42 36 35 41 48 49 48 48 47 46 47 48 50 51 51 49 48 49 52 53 53 53 54 54 55 56 57 58 57 57 58 59 60 61 61 60 60 61 62 63 64 64 65 65 65 65 65 66 67 68 69 71 72 72 73 74 75 76 77 78 80 82 83 85 87 89 90 91 92 94 96
59 60 62 62 61 60 59 60 60 59 57 53 49 48 47 44 45 50 53 53 53 53 50 48 49 50 51 51 51 51 51 53 55 56 56 57 59 59 59 60 61 60 60 60 60 60 61 63 65 65 65 65 66 66 67 67 67 68 68 69 70 71 72 73 74 74 74 74 74 76 77 78 80 82 84 86 88 90 93 95 96 97 98 99 101
62 62 63 64 63 61 61 62 62 61 60 57 53 52 51 52 54 58 59 57 56 55 53 51 49 50 52 54 55 55 55 56 57 56 56 59 61 62 63 66 66 64 64 64 65 65 65 67 68 69 69 69 69 70 71 72 72 73 74 75 76 78 79 79 78 78 77 78 79 81 83 85 88 89 91 93 95 97 100 101 103 104 105 106 107
66 64 63 64 64 63 62 63 64 65 65 64 62 60 59 58 59 61 63 63 61 59 57 55 53 52 54 56 58 59 59 59 60 60 59 61 63 64 65 68 69 68 67 67 68 69 70 71 72 73 73 74 74 75 76 76 77 78 78 79 79 80 81 81 82 83 84 86 88 89 91 92 94 95 96 98 99 100 101 103 104 106 107 109 111
69 67 65 65 65 65 64 64 65 66 67 67 68 67 66 64 65 66 66 67 66 65 63 62 60 58 58 58 59 60 61 62 64 65 66 66 67 67 68 69 71 71 70 69 70 71 72 74 75 76 77 78 78 79 79 79 80 80 81 81 82 83 84 85 87 88 88 89 90 91 92 93 94 95 97 98 99 101 103 105 107 109 111 113 114
70 68 68 67 67 67 67 67 67 68 69 70 71 71 71 70 69 69 70 70 70 70 70 69 67 66 65 65 64 64 64 65 67 69 71 72 72 72 71 71 71 71 71 71 72 73 75 76 77 78 78 79 79 79 80 81 81 83 84 86 87 89 90 90 90 90 90 91 92 92 94 95 97 99 101 102 104 106 108 110 112 114 115 116 117
71 70 70 70 69 70 70 71 71 71 71 72 73 73 74 75 74 74 73 73 73 73 72 72 71 70 69 68 68 68 69 70 71 72 74 75 75 76 76 76 76 76 76 77 78 79 80 80 81 81 82 82 82 83 84 85 87 89 91 93 95 96 97 98 98 99 100 101 101 102 103 104 106 107 108 110 111 113 114 115 116 117 118 119 120
69 70 71 72 72 72 73 73 74 75 75 76 75 75 76 76 77 77 77 77 77 76 75 74 74 74 73 73 72 72 73 74 75 76 77 77 78 78 78 79 80 81 82 83 84 85 86 87 88 89 90 91 91 92 92 93 94 95 97 99 101 102 104 105 106 107 108 109 110 110 111 111 112 112 113 114 116 117 118 119 120 121 122 123 124
72 71 72 73 75 75 75 75 76 77 78 78 78 78 78 78 79 80 80 81 81 81 81 79 78 77 76 77 77 77 77 77 78 79 80 80 80 80 81 82 84 86 87 88 89 91 92 93 94 95 96 97 98 98 98 98 98 99 100 102 103 105 106 107 108 109 109 110 111 111 112 112 113 114 116 117 119 120 122 123 125 126 128 129 130
81 79 78 77 78 79 79 79 79 79 79 79 80 80 80 80 81 82 83 83 84 85 85 85 84 82 80 80 81 81 81 82 82 83 84 85 86 86 88 89 90 92 93 94 94 95 95 95 95 96 96 96 97 98 99 100 100 101 102 104 105 106 107 108 109 110 111 112 113 114 116 117 118 120 121 122 123 125 126 128 129 131 132 134 134
88 87 85 84 83 83 83 84 84 84 84 84 84 84 84 84 84 85 85 86 87 87 88 88 88 88 87 86 86 86 86 87 88 88 89 91 92 93 94 95 96 96 97 97 98 98 98 97 97 97 98 99 100 101 102 103 104 105 106 107 109 110 111 112 113 115 116 117 119 120 122 123 124 124 125 126 127 129 130 131 132 133 134 135 135
90 90 90 90 89 88 87 87 87 88 89 89 89 89 89 89 89 89 89 89 90 90 91 91 91 91 91 91 91 91 91 92 92 93 93 94 94 95 95 96 97 97 97 98 98 98 98 99 99 99 100 101 102 103 104 105 106 108 109 111 112 113 115 116 117 119 120 122 123 125 126 126 127 128 129 130 131 132 133 134 134 135 136 136 137
90 91 91 92 92 92 91 90 88 87 88 89 91 92 92 93 93 92 92 92 92 92 93 93 93 93 94 94 94 95 95 95 95 96 96 96 96 97 97 97 97 97 97 98 98 99 100 100 101 102 103 104 105 106 108 109 111 112 113 115 116 118 119 121 122 124 125 126 128 129 130 130 131 132 133 134 135 136 137 138 139 140 140 141 142
92 92 92 92 93 93 94 94 93 92 90 90 90 91 92 93 93 94 94 94 94 94 95 95 95 95 96 96 97 98 98 98 99 99 99 99 99 99 99 100 100 100 101 102 102 103 104 105 106 108 109 110 111 113 115 116 118 119 121 122 123 125 126 128 129 130 131 132 133 134 135 136 137 138 139 140 141 142 143 144 145 146 146 147 147
95 95 95 95 95 95 95 96 96 97 96 95 94 93 93 94 94 95 95 95 96 96 97 97 97 98 98 99 100 100 101 102 102 103 103 103 104 104 104 105 105 106 107 108 109 110 111 113 114 115 116 118 119 121 122 124 125 126 128 129 131 132 134 135 136 137 138 139 140 140 141 142 143 144 144 145 146 147 147 148 148 149 149 148 148
97 97 97 98 98 98 99 99 99 100 100 100 99 98 97 97 98 98 99 99 99 100 100 101 101 102 102 103 103 104 105 106 106 107 107 108 109 109 110 111 112 113 114 115 116 117 118 119 120 122 123 124 125 126 128 129 130 132 134 135 137 138 139 140 141 141 142 143 143 144 145 146 147 147 148 149 149 149 149 149 148 148 147 147 146
99 99 100 100 100 100 101 101 102 103 103 104 104 103 103 102 102 102 102 103 103 104 104 105 105 106 107 108 109 109 110 111 111 112 112 113 114 115 116 117 118 119 120 121 122 123 124 125 126 127 128 129 130 131 132 134 135 137 138 139 140 141 141 142 143 144 145 146 146 147 147 147 148 148 147 147 146 146 145 145 144 144 143 142 140
98 99 100 101 101 101 101 102 102 103 105 106 107 107 108 108 107 107 107 107 107 107 107 108 108 109 110 111 112 113 114 115 116 117 118 119 120 121 122 122 123 124 125 126 127 128 129 129 131 132 132 133 134 135 136 138 139 140 141 141 142 142 143 144 144 145 145 144 144 144 143 143 142 142 141 141 140 140 140 139 139 137 136 135 133
95 96 97 99 99 100 101 102 102 103 104 106 107 109 110 111 111 111 111 112 112 112 112 112 112 112 113 113 114 115 116 118 119 120 121 122 123 124 125 126 127 127 128 130 131 132 133 134 135 135 136 137 138 139 140 140 141 141 141 141 141 140 140 140 139 139 138 137 137 137 136 136 136 136 135 135 135 134 133 132 131 130 128 126 125
91 92 94 96 97 99 100 101 103 103 104 106 107 108 110 111 112 113 114 114 115 116 116 117 117 117 118 118 119 119 120 121 122 123 124 125 126 127 128 128 129 131 132 133 134 135 136 137 137 138 138 138 139 139 139 139 138 138 137 137 136 135 135 134 133 133 132 132 132 131 131 130 130 130 129 128 128 126 125 124 122 121 119 118 117
86 88 90 92 94 96 98 100 101 103 104 105 106 108 109 110 112 113 114 115 116 117 118 119 119 120 121 122 122 123 124 124 125 125 126 126 127 128 129 130 131 132 133 134 135 135 136 136 136 136 136 136 136 136 136 135 135 134 134 133 132 131 130 129 128 127 126 125 125 124 123 123 122 122 121 120 119 118 117 116 115 114 113 112 112
78 80 83 85 88 90 92 94 96 98 100 102 104 106 107 109 110 111 113 114 115 116 117 118 119 120 121 122 123 124 125 125 126 127 127 128 128 129 130 130 131 131 132 132 132 132 132 132 132 132 132 132 131 131 130 129 128 126 125 124 122 121 120 119 118 117 117 116 116 116 115 115 114 114 113 112 111 111 110 110 110 109 108 107 106
67 70 72 75 78 81 83 86 88 90 92 94 96 98 100 102 104 105 107 109 110 111 113 114 115 116 117 118 119 120 121 121 122 123 123 124 124 124 124 125 125 124 124 124 123 123 123 122 122 121 120 120 119 118 117 116 114 113 112 112 111 110 110 109 109 108 108 108 108 108 109 108 108 108 107 107 107 107 106 105 104 103 102 101 100
59 61 64 66 68 71 73 76 78 80 82 84 86 88 90 91 93 95 96 98 99 101 103 104 105 107 108 109 110 111 112 112 113 113 114 114 114 114 114 113 113 112 112 111 110 109 109 108 107 107 106 106 105 104 104 103 103 103 103 103 102 102 102 102 102 102 103 103 103 104 104 104 104 104 103 103 103 102 101 100 99 98 97 95 93
57 59 60 61 63 64 66 67 69 71 73 74 76 78 79 81 82 84 86 87 88 90 92 93 94 96 97 98 99 100 100 101 101 101 101 101 101 100 100 99 98 98 97 97 96 96 96 96 96 96 96 96 96 96 96 96 96 96 96 96 96 97 97 97 98 99 99 100 100 101 100 100 100 100 99 99 98 97 96 95 94 92 90 88 86
Wind_Direction
131 131 128 127 127 126 127 131 134 136 137 138 138 136 134 133 133 133 132 132 133 135 134 133 131 130 131 133 135 135 135 135 134 134 133 132 129 127 126 125 124 121 117 113 112 111 109 108 109 108 106 102 100 100 100 99 97 94 91 88 89 91 93 92 91 89 88 89 93 95 94 91 83 77 74 73 74 68 41 14 358 354 350 347 344
131 134 134 133 133 132 132 135 137 139 141 142 142 141 139 139 138 138 137 137 138 139 139 137 136 135 134 135 138 139 140 140 140 140 138 137 135 134 132 130 127 123 119 118 119 119 118 117 115 110 103 94 88 89 91 89 88 87 85 81 79 76 75 76 77 76 70 58 50 47 51 55 57 57 66 63 59 41 347 333 328 326 326 327 327
127 132 136 136 136 136 137 139 140 141 144 146 146 145 144 143 143 142 140 140 142 143 143 141 140 139 139 138 139 139 140 141 143 143 142 141 141 139 137 132 128 124 121 121 121 120 120 118 112 103 95 86 82 80 80 80 82 82 81 81 83 81 78 82 85 81 74 68 50 12 357 3 5 354 343 328 316 307 311 320 321 319 317 316 316
126 129 134 138 139 139 140 142 143 143 146 149 150 149 148 147 147 146 144 143 144 147 147 147 146 146 144 144 143 142 141 141 143 146 147 148 148 147 142 136 130 125 123 123 122 122 122 118 110 101 97 96 95 89 82 83 83 80 76 76 76 73 70 76 90 94 90 96 107 103 272 254 282 302 305 305 303 302 304 309 312 313 312 311 311
132 132 133 137 141 141 141 143 145 146 148 151 153 153 153 152 151 151 149 147 147 150 152 153 152 151 149 148 148 149 147 146 147 150 154 157 158 156 151 145 139 134 132 132 131 129 126 118 106 95 93 95 94 93 90 82 71 61 54 51 50 50 48 48 49 71 231 242 245 251 250 251 257 266 272 280 286 292 297 302 306 309 308 307 308
140 141 139 138 141 143 143 144 146 148 150 152 155 157 158 157 156 156 154 153 153 154 157 158 157 155 152 151 151 152 153 152 152 155 160 164 167 166 162 158 154 152 151 150 147 146 144 138 102 46 46 38 29 30 12 359 358 358 352 344 338 326 311 313 319 308 298 294 287 282 278 277 276 276 277 281 286 291 295 298 303 306 307 307 306
143 147 148 147 144 145 146 146 147 148 150 153 156 159 161 162 161 160 159 159 159 160 162 163 163 161 159 157 156 156 157 158 158 160 164 170 174 176 175 174 173 175 178 183 190 194 195 205 239 279 296 305 307 303 303 315 328 341 341 317 301 302 297 290 289 290 295 301 304 307 307 303 296 290 288 289 292 295 297 299 303 306 307 307 308
146 148 153 157 155 152 151 151 151 151 151 153 156 159 162 164 165 165 165 165 165 167 169 170 171 171 170 169 167 164 164 165 167 169 171 177 183 187 190 191 195 201 209 221 231 235 236 244 261 280 292 296 296 296 297 302 308 315 315 302 294 295 293 287 286 288 290 290 290 294 299 299 293 286 283 285 288 291 293 296 298 300 299 300 302
161 156 155 160 164 165 162 159 158 157 157 157 159 161 164 166 168 170 171 172 173 174 176 177 180 182 182 181 179 177 177 178 180 182 185 189 197 203 206 209 214 222 231 240 246 247 249 256 266 277 287 291 290 291 293 297 300 300 297 291 286 285 283 282 283 288 289 285 281 280 282 283 282 277 275 281 287 289 288 289 291 292 292 294 296
176 171 164 163 164 168 172 172 170 167 166 166 167 168 169 170 171 174 177 179 181 182 184 185 187 190 191 192 191 191 191 192 193 196 198 201 207 215 221 224 228 233 240 247 251 254 255 257 261 267 273 277 278 281 285 289 292 291 290 287 283 282 282 282 281 279 279 278 278 280 282 281 279 275 274 279 284 286 284 284 287 288 289 291 293
187 181 176 174 169 166 168 173 178 179 179 179 178 178 179 179 180 181 183 185 188 191 193 195 197 198 200 201 202 204 206 207 209 210 211 214 217 222 230 234 239 244 249 254 258 261 262 262 262 264 265 267 270 274 279 281 283 284 285 285 285 285 288 290 288 282 276 274 275 279 282 283 281 280 279 279 281 282 279 281 286 289 289 291 293
194 189 187 188 183 174 171 172 175 180 186 190 191 190 188 188 188 190 191 194 197 200 202 204 206 207 209 210 212 215 219 222 225 225 226 227 229 231 236 240 246 250 254 259 263 265 265 266 267 268 269 270 272 274 277 280 281 282 283 284 285 287 289 290 288 286 284 281 279 277 277 278 280 282 283 283 284 284 281 285 291 291 290 291 293
200 198 195 195 194 192 193 191 187 185 186 190 196 199 197 196 196 196 199 202 205 207 209 211 213 214 216 217 219 222 226 229 232 233 233 234 235 237 239 243 246 249 254 260 263 263 264 266 269 272 274 275 276 276 278 280 280 281 282 283 283 283 282 282 282 283 283 282 280 275 271 271 274 278 282 284 286 286 286 289 291 289 287 289 291
209 208 205 205 209 210 214 221 219 212 205 200 198 201 204 207 209 209 210 213 216 218 220 221 222 223 224 224 225 227 230 233 236 239 239 239 239 240 242 244 247 249 252 256 258 258 259 261 266 270 272 275 278 278 279 279 280 281 282 282 283 281 279 279 280 281 281 280 278 275 272 273 275 277 279 281 283 286 287 289 289 287 287 290 292
214 215 214 215 217 216 219 227 230 226 227 230 227 221 217 219 221 222 222 224 226 228 230 232 233 234 235 234 234 234 235 238 240 243 245 246 245 245 246 247 249 251 252 254 257 260 262 263 266 269 271 274 277 279 280 281 281 281 281 281 282 282 281 281 280 280 280 279 278 278 280 282 282 281 280 280 280 281 282 283 285 286 287 290 292
218 219 220 219 220 218 219 227 233 230 228 232 236 235 232 228 228 229 228 228 229 232 235 237 238 240 242 243 244 244 244 244 245 247 249 250 251 251 251 251 251 252 254 256 258 262 264 265 266 269 273 275 276 279 281 280 280 281 282 283 283 283 283 282 281 282 282 282 282 283 285 287 286 284 283 283 283 283 282 283 284 285 286 288 289
221 223 223 224 226 225 223 226 233 235 232 230 233 237 238 239 240 241 241 240 239 239 239 240 241 242 244 246 248 249 249 249 249 250 251 252 253 253 253 253 252 252 255 259 262 265 266 266 266 268 272 274 275 277 278 278 278 280 281 281 282 282 282 280 280 281 282 282 283 285 286 287 286 285 285 285 285 286 286 285 285 285 286 286 286
224 225 225 226 229 231 230 228 230 234 234 233 235 239 242 245 246 248 251 253 253 249 248 249 250 248 246 247 249 251 252 254 254 255 255 255 256 256 257 256 256 255 255 259 263 267 270 271 271 272 273 272 272 273 276 275 275 277 278 278 279 280 281 281 281 283 284 284 285 285 285 286 286 286 286 286 287 287 287 286 286 286 285 284 283
226 225 224 225 229 233 235 234 233 234 234 235 238 242 246 250 250 251 253 255 256 256 257 257 257 256 255 255 254 254 256 259 261 262 262 260 259 260 261 260 260 259 259 260 262 264 266 268 270 270 271 269 269 272 276 276 275 276 277 277 278 280 281 282 284 286 287 288 287 287 286 285 286 286 286 287 288 289 288 287 287 287 286 285 285
227 227 225 225 227 231 236 237 238 237 235 235 239 244 247 250 252 253 253 253 254 255 256 257 259 262 262 261 261 261 262 264 267 268 267 266 266 269 269 267 265 264 265 265 266 266 266 268 269 269 269 269 269 270 273 275 275 276 277 278 280 281 282 283 285 286 288 288 288 287 286 286 286 286 286 287 287 288 288 288 288 287 287 286 285
226 226 225 225 227 230 233 235 237 237 234 234 238 242 246 249 252 253 253 252 252 251 250 251 256 260 260 259 259 261 263 266 269 269 267 266 270 273 273 273 271 269 268 269 270 270 271 271 272 272 272 273 273 272 271 272 273 275 277 279 281 282 283 284 285 286 286 287 287 287 287 287 288 287 288 288 287 287 287 287 287 287 287 286 286
224 225 225 226 228 230 232 234 234 233 233 235 239 243 248 253 255 256 255 254 252 250 249 250 252 254 258 260 258 257 259 262 262 261 260 262 267 270 270 270 270 269 268 269 268 269 271 271 271 271 272 273 273 273 272 272 272 274 277 279 280 281 282 283 283 284 284 285 285 286 287 288 288 288 287 286 286 287 287 287 287 287 287 287 286
223 225 226 227 229 230 231 232 232 233 234 235 237 241 244 247 250 251 251 251 251 250 251 251 250 250 254 258 259 258 260 262 258 255 256 260 264 267 268 268 268 267 267 267 266 267 268 269 269 270 270 271 271 272 272 273 274 275 276 277 278 278 279 280 280 281 282 283 283 284 284 285 285 286 286 286 286 286 286 285 285 286 286 287 287
225 227 227 227 228 229 230 231 232 234 233 231 231 236 240 241 244 246 248 249 251 253 253 251 249 248 250 252 255 258 262 262 260 257 258 261 264 265 266 267 267 267 265 265 265 265 266 267 267 268 268 269 271 272 273 274 276 276 276 276 277 278 279 279 279 280 281 282 283 284 284 284 284 284 284 285 285 284 283 284 284 285 285 285 286
230 231 230 229 229 230 231 232 234 235 234 229 227 231 237 239 241 244 247 249 250 253 256 254 251 251 251 252 254 258 259 259 259 258 259 260 262 264 264 264 264 264 266 267 268 269 269 269 267 267 268 270 272 273 273 275 277 277 276 277 278 279 280 280 280 281 282 283 284 284 284 285 285 284 284 284 284 283 284 284 285 286 285 285 286
232 234 235 233 232 232 234 236 237 237 236 233 230 232 236 239 239 239 240 241 244 250 256 256 252 252 254 254 254 255 255 255 255 256 257 259 261 263 264 263 262 263 265 267 268 269 270 268 266 266 268 270 271 272 273 275 276 277 277 278 279 279 280 281 281 282 283 284 285 285 285 284 284 284 284 284 285 285 285 286 286 286 286 286 286
231 234 237 237 235 234 235 238 239 239 239 238 236 235 235 234 237 241 243 243 245 250 254 253 251 254 255 253 251 251 251 251 253 256 258 260 261 261 261 261 260 261 263 264 266 268 268 268 268 268 268 269 269 271 272 273 275 275 275 275 277 278 279 280 281 282 282 283 283 283 283 283 283 283 284 284 285 285 285 285 285 285 285 286 286
229 232 235 237 237 235 235 236 238 239 241 241 239 236 233 231 236 245 249 250 251 254 254 252 252 256 255 250 247 248 249 251 255 259 261 262 262 262 261 260 261 262 262 263 265 267 268 269 270 270 270 270 270 270 271 272 273 273 273 273 274 275 277 278 280 281 282 283 284 284 284 284 284 284 284 284 285 285 285 285 286 286 286 287 287
228 231 233 235 236 236 236 236 237 238 239 240 239 236 233 232 236 244 249 253 254 256 255 253 253 256 255 250 248 249 251 253 256 260 262 263 264 264 264 264 264 265 264 264 264 266 268 270 272 273 273 273 273 273 274 274 275 275 274 274 275 275 276 277 278 279 280 282 283 283 283 284 284 284 284 284 285 285 285 285 286 286 286 286 287
228 231 233 236 237 238 238 238 238 239 240 241 242 241 239 237 238 242 248 253 255 256 256 255 253 253 252 251 250 251 253 256 259 261 263 264 265 266 266 267 268 268 267 266 266 267 269 271 272 274 274 275 275 275 276 276 276 276 276 276 277 277 278 279 280 281 282 283 284 285 285 285 286 285 285 285 285 284 284 283 283 283 284 284 285
230 232 234 236 238 240 241 240 240 240 241 242 244 245 245 243 242 243 246 250 253 255 257 258 257 255 254 254 254 253 254 256 260 262 264 266 266 266 265 266 268 270 270 270 270 271 272 273 274 275 275 276 276 276 276 276 277 277 278 278 279 281 282 282 283 284 284 284 284 284 283 283 283 282 282 281 281 281 281 281 281 282 283 284 285
231 234 236 238 239 240 241 242 242 242 243 244 245 246 247 247 246 246 247 249 252 254 257 259 259 258 258 258 257 256 255 256 259 261 264 266 267 267 266 265 265 266 268 270 271 272 273 274 274 275 275 275 274 275 275 276 276 277 278 279 281 282 283 283 283 282 282 281 281 280 280 280 280 280 280 280 281 282 283 284 285 286 287 289 290
233 234 237 239 240 241 242 243 244 244 245 245 246 247 247 248 248 248 248 249 251 254 256 257 258 258 257 257 257 257 257 257 258 260 263 265 266 267 267 267 267 267 269 271 273 274 274 275 275 275 275 274 274 274 274 274 275 276 277 278 280 281 282 283 283 284 284 285 285 285 286 286 286 287 287 288 288 289 289 289 290 290 291 291 291
235 235 237 238 239 241 242 244 245 246 247 247 248 248 249 249 249 249 249 250 251 253 256 257 259 258 257 257 257 257 257 258 259 259 261 263 264 265 266 267 268 269 270 272 273 274 275 276 277 277 277 277 277 277 277 277 277 277 278 278 280 281 282 283 284 285 286 287 288 289 289 289 289 289 289 289 289 289 289 289 289 289 288 288 288
238 238 238 239 239 240 241 243 244 245 247 248 249 249 250 250 251 251 251 252 252 254 255 257 259 259 258 257 257 257 257 258 258 259 260 260 262 263 264 265 267 269 270 272 273 274 275 276 277 278 278 278 279 279 279 280 280 280 280 280 281 281 282 283 284 285 286 286 286 287 287 287 287 287 287 287 287 287 287 288 288 288 289 289 289
240 241 241 241 242 242 242 242 243 244 245 247 248 250 251 252 252 253 253 254 255 255 256 257 258 258 257 257 256 257 257 258 258 259 259 260 261 262 263 265 266 268 269 271 272 274 275 276 276 277 277 278 278 279 280 280 281 281 281 282 282 283 283 284 285 285 285 286 286 286 286 286 287 287 287 288 288 288 289 289 290 290 290 290 290
242 242 243 243 244 244 245 245 245 246 246 247 249 250 252 253 254 254 255 255 256 257 257 258 259 259 258 258 257 257 258 258 259 259 260 260 261 263 264 265 266 267 269 270 271 273 274 275 276 276 277 277 278 279 280 281 281 282 283 283 283 284 285 285 286 286 286 287 287 287 287 288 288 288 289 289 289 289 290 290 290 290 290 290 290
241 242 243 244 244 245 246 247 248 249 250 251 252 253 254 255 256 256 257 257 257 258 258 259 260 260 260 260 260 260 260 260 261 261 261 262 263 264 266 267 268 269 270 271 272 274 275 276 276 277 278 278 279 280 281 282 282 283 283 284 284 285 285 286 286 286 287 287 287 287 288 288 288 289 289 289 289 289 289 289 289 289 289 289 289
240 241 242 243 244 245 246 247 248 249 250 252 253 254 255 256 257 258 258 259 259 260 260 260 261 261 262 262 262 262 262 263 263 263 264 265 266 266 268 269 270 270 271 272 273 274 275 276 276 277 278 279 279 280 281 282 283 283 284 284 285 285 285 286 286 286 287 287 287 288 288 288 289 289 289 289 289 289 289 289 289 289 289 289 289
242 242 242 243 244 245 246 247 248 249 250 251 252 253 254 255 256 257 258 259 259 260 260 261 261 261 262 263 263 264 264 264 265 265 266 266 267 268 269 269 270 271 272 272 273 274 274 275 276 276 277 278 279 280 281 282 282 283 284 284 285 285 286 286 286 287 287 287 288 288 288 289 289 289 289 290 290 290 290 290 291 291 291 291 290
246 246 246 246 246 246 247 247 248 249 250 251 252 252 253 253 254 255 256 257 258 259 260 260 261 261 262 262 263 263 264 264 265 266 266 267 267 268 269 269 270 271 272 273 273 274 275 276 276 277 278 279 279 280 281 282 282 283 284 285 285 286 286 286 287 287 288 288 288 289 289 290 290 290 290 291 291 291 291 291 291 291 291 291 291
247 248 248 249 249 249 249 250 250 250 251 252 253 253 254 254 254 255 255 256 256 257 258 259 259 260 261 261 262 263 263 264 265 265 266 266 267 268 269 270 270 271 272 273 274 275 276 277 278 278 279 280 281 281 282 283 283 284 285 285 286 286 286 287 287 288 288 289 289 289 289 290 290 290 290 290 290 291 291 291 291 291 291 291 291
247 248 249 250 250 251 252 252 252 253 253 254 254 255 256 256 257 257 257 257 258 258 258 259 260 260 261 262 262 263 264 265 266 266 267 268 269 269 270 271 272 273 274 275 276 277 278 278 279 280 280 281 282 282 283 284 284 285 285 286 286 286 287 287 288 288 288 289 289 289 289 289 289 290 290 290 290 290 290 291 291 291 291 291 292
249 249 250 250 251 252 253 253 254 254 255 255 256 256 257 257 258 258 259 259 259 260 260 261 262 262 263 264 265 265 266 267 267 268 269 269 270 271 272 273 274 275 276 277 277 278 279 280 280 281 281 282 282 283 283 284 284 285 285 286 286 287 287 287 288 288 288 288 288 289 289 289 289 289 289 290 290 290 291 291 291 291 292 292 292
252 252 252 253 253 253 254 254 255 255 256 256 257 257 258 258 259 259 260 260 261 261 262 262 263 264 264 265 266 267 268 268 269 269 270 270 271 271 272 273 274 275 276 277 278 279 279 280 281 281 282 282 283 283 284 284 285 285 286 286 287 287 287 287 287 288 288 288 288 288 288 289 289 289 290 290 290 291 291 292 292 292 292 293 293
253 254 254 254 255 255 255 256 256 257 257 258 258 258 259 260 260 261 261 262 262 263 263 264 264 265 265 266 267 268 268 269 270 270 271 271 272 272 273 274 275 275 276 277 278 279 279 280 281 281 282 282 283 283 284 285 285 285 286 286 286 286 286 286 286 287 287 287 288 288 289 289 289 290 290 291 291 291 292 292 293 293 293 294 294
254 254 255 256 256 256 257 257 257 258 258 259 260 260 261 261 261 262 262 263 263 264 265 265 265 266 266 267 268 268 269 270 271 271 272 273 273 274 275 275 276 276 277 278 278 279 280 280 281 281 282 282 283 283 284 284 284 284 284 285 285 285 285 286 286 286 287 288 288 288 289 289 290 290 291 291 292 292 293 293 294 294 295 295 295
255 255 256 256 257 258 258 258 259 259 260 260 261 261 262 262 263 263 264 264 265 265 266 266 266 267 267 268 269 269 270 271 271 272 273 274 274 275 276 276 277 277 278 278 279 279 279 280 280 281 281 281 282 282 283 283 283 283 284 284 284 285 285 286 286 287 287 288 288 289 289 289 290 291 291 292 293 294 294 294 295 295 295 296 296
257 257 257 258 258 259 259 260 260 261 261 262 262 262 263 263 264 264 265 265 266 266 267 267 267 268 268 269 269 270 270 271 272 272 273 274 274 275 275 276 276 277 277 278 278 279 279 279 280 280 281 281 281 282 282 283 283 283 284 284 285 286 286 287 287 288 288 288 289 289 290 291 292 293 293 294 294 295 295 295 295 296 296 296 296
260 260 260 260 261 261 261 262 262 263 263 264 264 264 265 265 265 266 266 267 267 267 268 268 269 269 269 270 270 271 271 272 272 273 273 274 274 275 275 276 276 277 277 278 278 278 279 279 280 280 280 281 281 282 283 283 284 285 285 286 287 287 288 288 288 289 289 290 290 291 292 293 294 295 295 295 295 295 296 296 296 297 297 297 297
264 264 264 264 264 265 265 265 266 266 266 266 266 266 267 267 267 267 268 268 268 269 269 270 270 270 271 271 272 272 272 273 273 274 274 274 275 275 275 276 276 277 277 278 278 279 279 280 280 281 282 282 283 283 284 285 285 286 287 287 288 288 289 289 290 290 291 292 293 294 295 295 296 296 296 296 296 297 297 297 298 298 298 298 298
Height
10937 10937 10937 10938 10938 10939 10939 10939 10940 10941 10942 10943 10944 10945 10946 10947 10948 10949 10951 10952 10953 10955 10956 10958 10959 10961 10962 10963 10965 10966 10968 10970 10971 10973 10974 10976 10977 10978 10979 10979 10980 10980 10981 10982 10983 10984 10984 10984 10985 10985 10985 10985 10985 10985 10985 10985 10986 10986 10986 10986 10986 10986 10986 10986 10986 10986 10986 10985 10985 10985 10985 10985 10985 10985 10985 10985 10985 10985 10984 10984 10983 10983 10983 10982 10981
10938 10938 10938 10939 10939 10940 10940 10941 10941 10942 10943 10944 10945 10947 10948 10949 10950 10951 10953 10954 10955 10957 10958 10959 10961 10962 10964 10965 10966 10968 10969 10971 10972 10974 10976 10977 10979 10980 10981 10981 10982 10983 10984 10985 10985 10986 10986 10987 10987 10988 10988 10988 10988 10988 10988 10988 10988 10988 10988 10988 10988 10988 10988 10988 10987 10987 10987 10987 10986 10986 10986 10986 10986 10985 10985 10985 10985 10985 10985 10984 10984 10983 10983 10982 10981
10939 10940 10940 10940 10940 10941 10942 10942 10943 10944 10944 10945 10947 10948 10949 10951 10952 10953 10954 10955 10957 10958 10960 10961 10962 10964 10965 10966 10968 10969 10970 10972 10974 10976 10978 10979 10980 10981 10982 10983 10984 10985 10985 10986 10987 10987 10988 10988 10989 10989 10989 10990 10990 10990 10990 10990 10990 10990 10990 10990 10989 10989 10989 10989 10989 10988 10988 10987 10987 10987 10987 10987 10987 10986 10986 10985 10985 10985 10984 10984 10983 10983 10982 10982 10981
10940 10941 10941 10941 10942 10942 10943 10944 10945 10945 10946 10947 10948 10950 10951 10952 10953 10955 10956 10957 10958 10960 10961 10962 10964 10965 10966 10968 10969 10971 10972 10974 10976 10977 10979 10980 10981 10982 10984 10984 10985 10986 10987 10987 10988 10988 10989 10989 10990 10990 10990 10990 10991 10991 10991 10991 10991 10991 10991 10991 10991 10991 10990 10990 10989 10989 10988 10988 10987 10987 10987 10986 10986 10986 10986 10985 10985 10985 10984 10984 10983 10982 10982 10981 10981
10940 10942 10943 10943 10943 10943 10944 10945 10946 10947 10948 10949 10950 10951 10952 10954 10955 10956 10957 10958 10960 10961 10962 10963 10965 10966 10968 10969 10971 10973 10974 10975 10977 10979 10980 10981 10982 10983 10984 10985 10986 10987 10987 10988 10989 10989 10989 10990 10990 10990 10990 10991 10991 10991 10991 10992 10991 10991 10992 10992 10991 10991 10991 10990 10990 10989 10988 10988 10987 10987 10986 10986 10985 10985 10985 10985 10984 10984 10983 10983 10982 10982 10981 10980 10979
10940 10942 10943 10944 10945 10945 10945 10946 10947 10948 10949 10951 10952 10953 10954 10955 10956 10957 10959 10960 10961 10962 10963 10965 10966 10968 10969 10971 10973 10974 10975 10977 10978 10979 10981 10981 10982 10983 10984 10985 10986 10986 10987 10988 10988 10989 10989 10989 10989 10989 10990 10990 10990 10990 10991 10991 10991 10991 10991 10991 10991 10991 10990 10990 10989 10989 10988 10988 10987 10987 10986 10985 10985 10985 10984 10984 10983 10983 10982 10981 10981 10980 10980 10979 10978
10941 10942 10944 10945 10946 10946 10947 10947 10948 10949 10950 10951 10953 10954 10955 10956 10957 10958 10959 10960 10961 10963 10964 10966 10967 10969 10971 10972 10973 10975 10976 10977 10979 10980 10981 10982 10982 10983 10984 10985 10985 10986 10986 10987 10987 10988 10988 10988 10988 10988 10988 10988 10989 10989 10989 10989 10990 10990 10990 10990 10990 10990 10990 10989 10989 10988 10988 10987 10987 10987 10986 10986 10985 10984 10984 10983 10982 10982 10981 10980 10979 10979 10978 10977 10976
10941 10942 10944 10945 10947 10947 10948 10948 10949 10950 10951 10952 10953 10954 10955 10956 10957 10959 10960 10961 10962 10963 10965 10966 10968 10969 10971 10972 10973 10975 10976 10977 10978 10980 10981 10981 10982 10983 10983 10984 10985 10985 10985 10986 10986 10986 10986 10986 10986 10986 10986 10987 10987 10987 10987 10988 10988 10988 10988 10988 10988 10987 10987 10987 10987 10987 10987 10987 10986 10986 10985 10985 10984 10983 10983 10982 10981 10980 10980 10979 10978 10978 10977 10976 10975
10938 10941 10943 10945 10947 10948 10948 10949 10950 10951 10952 10953 10954 10955 10956 10957 10958 10959 10960 10962 10963 10964 10965 10966 10968 10969 10970 10972 10973 10974 10976 10977 10978 10979 10980 10981 10981 10982 10982 10983 10983 10984 10984 10984 10984 10984 10984 10984 10984 10984 10984 10985 10985 10985 10985 10986 10986 10986 10985 10985 10985 10985 10985 10985 10985 10985 10985 10985 10984 10984 10983 10983 10982 10981 10980 10979 10979 10978 10978 10977 10976 10976 10975 10974 10973
10935 10937 10940 10942 10945 10947 10948 10950 10951 10952 10953 10953 10955 10956 10957 10958 10959 10960 10961 10962 10964 10965 10966 10967 10968 10969 10970 10971 10972 10974 10975 10976 10977 10978 10979 10980 10981 10981 10981 10982 10982 10982 10982 10982 10982 10983 10983 10983 10983 10982 10982 10983 10983 10983 10983 10983 10983 10983 10982 10982 10982 10982 10982 10982 10982 10982 10982 10982 10981 10981 10981 10980 10979 10979 10978 10977 10976 10976 10975 10974 10973 10972 10972 10971 10970
10935 10937 10938 10940 10942 10944 10946 10948 10950 10952 10953 10954 10955 10956 10957 10958 10960 10961 10962 10963 10964 10965 10966 10967 10967 10968 10969 10970 10971 10973 10974 10975 10976 10977 10978 10979 10980 10980 10980 10981 10981 10981 10981 10981 10980 10980 10979 10980 10980 10980 10980 10980 10980 10980 10980 10980 10980 10979 10979 10978 10978 10978 10979 10979 10979 10979 10979 10979 10978 10978 10977 10977 10976 10975 10974 10973 10972 10972 10972 10971 10969 10968 10967 10967 10966
10936 10937 10939 10941 10943 10944 10945 10946 10948 10949 10951 10953 10954 10955 10956 10957 10959 10961 10962 10963 10963 10964 10965 10966 10967 10968 10969 10970 10971 10972 10973 10974 10975 10976 10977 10978 10978 10979 10979 10979 10979 10979 10979 10978 10977 10976 10975 10975 10975 10976 10977 10977 10977 10976 10977 10977 10977 10976 10976 10975 10975 10975 10976 10976 10976 10975 10975 10975 10975 10974 10973 10973 10973 10972 10970 10969 10968 10968 10968 10967 10965 10964 10963 10962 10961
10934 10934 10936 10939 10942 10945 10946 10947 10947 10947 10947 10949 10951 10953 10955 10957 10958 10959 10961 10962 10962 10963 10964 10965 10966 10967 10968 10969 10970 10971 10972 10972 10973 10974 10975 10976 10976 10977 10977 10977 10977 10976 10976 10975 10973 10971 10970 10971 10972 10972 10972 10973 10973 10973 10973 10973 10973 10973 10972 10972 10972 10973 10973 10973 10973 10971 10971 10971 10971 10970 10969 10969 10969 10968 10967 10966 10964 10962 10962 10961 10960 10959 10958 10957 10956
10930 10932 10934 10937 10939 10943 10945 10946 10946 10947 10948 10950 10951 10953 10955 10957 10958 10959 10960 10961 10962 10963 10964 10965 10965 10966 10967 10968 10968 10969 10970 10970 10971 10972 10972 10973 10974 10974 10975 10974 10974 10973 10973 10971 10967 10965 10966 10968 10969 10969 10969 10969 10969 10969 10969 10969 10969 10969 10969 10968 10969 10969 10969 10969 10968 10967 10967 10967 10967 10966 10965 10965 10965 10964 10964 10962 10960 10957 10956 10955 10955 10954 10954 10953 10952
10928 10930 10932 10935 10937 10939 10942 10943 10945 10947 10950 10952 10953 10954 10954 10955 10956 10957 10958 10959 10960 10962 10962 10963 10964 10965 10965 10966 10966 10967 10967 10968 10968 10968 10969 10970 10970 10971 10971 10971 10971 10970 10969 10967 10964 10963 10965 10968 10968 10967 10967 10967 10966 10966 10965 10965 10965 10965 10965 10965 10965 10964 10964 10964 10963 10962 10963 10963 10963 10962 10961 10961 10961 10960 10959 10958 10956 10954 10952 10951 10950 10949 10949 10948 10947
10926 10928 10931 10932 10935 10937 10939 10940 10942 10945 10947 10948 10950 10951 10951 10952 10953 10954 10955 10956 10957 10958 10959 10960 10961 10962 10962 10963 10964 10964 10965 10965 10965 10965 10966 10966 10967 10968 10968 10968 10969 10968 10967 10965 10963 10963 10965 10966 10966 10966 10966 10965 10964 10963 10962 10961 10961 10960 10961 10961 10960 10959 10959 10959 10958 10958 10959 10959 10958 10958 10956 10956 10956 10955 10954 10952 10950 10950 10949 10948 10946 10945 10944 10944 10942
10923 10926 10928 10931 10933 10935 10937 10938 10940 10942 10943 10944 10945 10946 10948 10949 10950 10951 10951 10952 10953 10954 10955 10956 10956 10957 10958 10959 10960 10961 10961 10961 10961 10962 10962 10963 10964 10964 10965 10965 10966 10966 10965 10963 10962 10962 10962 10963 10963 10963 10962 10962 10960 10959 10958 10958 10957 10956 10956 10957 10956 10955 10954 10953 10953 10953 10955 10955 10954 10954 10952 10951 10951 10950 10949 10948 10946 10945 10944 10943 10941 10940 10940 10938 10937
10920 10922 10925 10927 10930 10933 10934 10936 10938 10939 10940 10941 10942 10944 10945 10947 10947 10948 10949 10950 10951 10951 10951 10952 10953 10953 10954 10955 10956 10956 10956 10957 10958 10959 10959 10960 10960 10960 10960 10961 10962 10963 10963 10963 10962 10960 10959 10959 10960 10959 10958 10957 10956 10955 10954 10953 10953 10952 10952 10952 10952 10951 10949 10948 10948 10948 10949 10950 10949 10948 10947 10946 10946 10945 10944 10943 10942 10941 10939 10937 10935 10935 10934 10932 10929
10914 10917 10920 10923 10926 10929 10931 10933 10935 10936 10938 10939 10941 10942 10943 10944 10945 10946 10947 10947 10947 10947 10948 10949 10949 10950 10952 10952 10952 10952 10952 10953 10955 10956 10956 10956 10955 10955 10956 10957 10958 10958 10959 10960 10960 10957 10955 10955 10955 10955 10953 10952 10951 10951 10949 10948 10948 10947 10947 10947 10948 10947 10946 10945 10944 10943 10943 10944 10943 10941 10940 10940 10940 10938 10937 10937 10936 10934 10932 10930 10929 10928 10926 10924 10921
10910 10913 10917 10919 10922 10924 10926 10929 10931 10932 10934 10936 10937 10938 10939 10941 10942 10943 10943 10943 10943 10943 10945 10946 10945 10947 10949 10949 10948 10948 10948 10949 10951 10951 10951 10951 10951 10950 10951 10952 10953 10954 10955 10956 10954 10951 10950 10950 10950 10950 10949 10948 10947 10946 10945 10944 10943 10942 10941 10941 10942 10942 10942 10941 10939 10938 10938 10938 10936 10934 10932 10933 10933 10931 10930 10930 10928 10926 10924 10922 10920 10919 10917 10915 10913
10907 10910 10913 10915 10917 10919 10922 10924 10925 10927 10930 10931 10932 10933 10935 10937 10939 10939 10939 10940 10939 10939 10940 10941 10942 10943 10944 10945 10945 10944 10944 10944 10945 10946 10946 10946 10945 10945 10945 10946 10948 10949 10950 10950 10948 10945 10945 10945 10945 10944 10944 10943 10942 10942 10940 10939 10938 10937 10935 10935 10935 10936 10936 10935 10933 10932 10931 10931 10930 10927 10925 10925 10924 10923 10923 10921 10919 10917 10916 10913 10911 10909 10907 10905 10904
10902 10904 10907 10910 10912 10915 10917 10918 10920 10922 10924 10926 10928 10930 10932 10935 10937 10936 10936 10935 10934 10934 10935 10937 10937 10938 10939 10940 10941 10941 10940 10940 10940 10941 10941 10940 10939 10939 10940 10940 10941 10943 10945 10944 10942 10939 10939 10939 10939 10938 10938 10937 10936 10935 10934 10934 10933 10931 10930 10929 10929 10929 10928 10928 10926 10924 10923 10923 10922 10920 10918 10917 10916 10914 10914 10912 10909 10908 10906 10904 10902 10899 10896 10894 10891
10896 10898 10901 10904 10906 10908 10911 10913 10915 10916 10918 10922 10925 10927 10929 10931 10932 10932 10932 10930 10929 10929 10931 10931 10932 10932 10933 10934 10935 10936 10936 10936 10935 10935 10935 10934 10933 10933 10933 10933 10935 10937 10938 10937 10935 10933 10933 10933 10933 10932 10930 10929 10928 10928 10928 10928 10927 10926 10925 10923 10922 10922 10921 10920 10918 10917 10915 10914 10914 10913 10911 10909 10907 10905 10904 10902 10900 10898 10897 10894 10892 10889 10885 10882 10879
10890 10892 10894 10897 10899 10901 10904 10907 10909 10911 10913 10917 10920 10921 10922 10923 10923 10923 10924 10923 10922 10923 10924 10925 10925 10926 10926 10927 10928 10929 10929 10930 10929 10929 10928 10928 10926 10926 10926 10927 10928 10929 10929 10929 10928 10927 10927 10926 10925 10924 10921 10921 10922 10922 10922 10922 10921 10920 10918 10917 10916 10915 10914 10912 10911 10909 10907 10906 10905 10904 10902 10901 10899 10897 10895 10893 10890 10888 10886 10883 10881 10878 10875 10872 10869
10885 10887 10888 10891 10894 10896 10898 10901 10903 10904 10908 10911 10913 10914 10915 10916 10916 10915 10915 10915 10915 10915 10916 10916 10917 10918 10919 10920 10921 10922 10922 10922 10922 10922 10921 10920 10920 10919 10919 10920 10920 10920 10920 10920 10920 10920 10919 10918 10917 10915 10913 10913 10915 10915 10915 10915 10915 10913 10911 10910 10909 10907 10906 10904 10903 10901 10899 10898 10896 10895 10894 10892 10891 10888 10886 10884 10881 10878 10875 10873 10871 10868 10865 10862 10859
10879 10881 10883 10886 10889 10892 10895 10896 10895 10897 10901 10905 10906 10906 10907 10909 10909 10907 10906 10906 10907 10907 10908 10909 10909 10910 10912 10912 10913 10914 10915 10915 10914 10914 10914 10914 10914 10914 10913 10912 10912 10912 10912 10913 10913 10912 10911 10909 10908 10907 10907 10906 10907 10906 10906 10907 10906 10905 10903 10902 10901 10899 10898 10896 10895 10893 10891 10889 10887 10885 10884 10883 10881 10879 10876 10873 10871 10868 10865 10863 10860 10858 10855 10852 10849
10873 10875 10877 10880 10883 10886 10889 10888 10888 10891 10896 10898 10899 10899 10900 10901 10900 10898 10898 10899 10900 10901 10902 10902 10902 10903 10904 10905 10905 10906 10907 10907 10907 10907 10908 10908 10908 10907 10905 10903 10903 10904 10905 10906 10906 10905 10903 10900 10899 10900 10901 10900 10899 10898 10898 10898 10898 10897 10896 10894 10892 10891 10889 10888 10886 10885 10883 10881 10879 10877 10875 10873 10871 10869 10866 10863 10861 10858 10855 10852 10849 10847 10844 10842 10839
10866 10868 10870 10873 10876 10879 10881 10881 10883 10886 10889 10891 10892 10892 10892 10893 10893 10891 10891 10893 10894 10895 10896 10896 10896 10897 10897 10898 10899 10900 10900 10901 10900 10901 10902 10901 10899 10898 10898 10895 10895 10897 10899 10899 10898 10898 10896 10893 10891 10892 10893 10893 10892 10892 10891 10891 10890 10889 10888 10886 10884 10883 10881 10879 10877 10876 10874 10872 10870 10868 10866 10863 10860 10858 10855 10853 10850 10846 10843 10840 10837 10834 10832 10829 10826
10858 10861 10864 10866 10868 10871 10873 10875 10877 10879 10882 10884 10885 10884 10885 10887 10887 10886 10886 10887 10888 10889 10890 10890 10891 10891 10891 10892 10893 10893 10894 10894 10894 10895 10896 10893 10890 10891 10891 10888 10888 10891 10892 10891 10891 10890 10889 10887 10885 10884 10884 10885 10884 10884 10883 10882 10882 10881 10879 10877 10875 10873 10871 10869 10867 10866 10864 10862 10860 10858 10855 10853 10850 10847 10844 10841 10838 10834 10831 10827 10824 10820 10818 10815 10811
10852 10855 10858 10860 10862 10864 10866 10868 10871 10872 10874 10877 10877 10875 10877 10882 10882 10881 10881 10881 10881 10882 10883 10884 10885 10885 10885 10886 10886 10886 10887 10887 10887 10888 10888 10886 10883 10883 10883 10881 10880 10883 10884 10884 10883 10882 10881 10879 10878 10876 10876 10876 10875 10875 10874 10872 10872 10870 10868 10866 10864 10862 10860 10858 10856 10854 10852 10850 10848 10845 10842 10840 10837 10834 10831 10828 10825 10821 10817 10814 10810 10807 10803 10800 10796
10846 10849 10852 10853 10855 10857 10859 10861 10864 10865 10866 10868 10868 10867 10870 10874 10875 10875 10876 10876 10875 10875 10876 10877 10877 10878 10879 10880 10880 10880 10880 10880 10880 10880 10880 10879 10877 10876 10875 10873 10872 10873 10874 10875 10875 10873 10872 10871 10869 10868 10867 10867 10866 10865 10864 10862 10861 10860 10857 10855 10853 10851 10848 10846 10843 10841 10839 10837 10835 10832 10829 10826 10823 10820 10817 10814 10811 10807 10804 10800 10796 10793 10789 10786 10781
10841 10843 10845 10847 10849 10851 10852 10854 10856 10858 10859 10860 10861 10861 10862 10865 10867 10868 10869 10869 10869 10869 10870 10870 10870 10871 10871 10872 10872 10873 10872 10872 10872 10871 10871 10870 10869 10868 10867 10866 10865 10865 10865 10865 10865 10864 10863 10862 10861 10860 10859 10858 10857 10855 10854 10852 10851 10849 10846 10844 10842 10839 10836 10834 10832 10829 10827 10825 10823 10821 10818 10815 10811 10807 10804 10801 10797 10793 10789 10785 10781 10777 10773 10769 10764
10834 10836 10838 10841 10843 10844 10846 10847 10848 10850 10852 10853 10854 10854 10855 10856 10858 10859 10860 10861 10862 10862 10862 10863 10863 10863 10863 10864 10864 10864 10864 10864 10863 10862 10861 10861 10860 10858 10857 10857 10856 10856 10856 10855 10855 10854 10853 10852 10851 10850 10849 10848 10846 10845 10843 10841 10839 10837 10834 10831 10829 10826 10823 10820 10818 10815 10813 10810 10808 10805 10802 10799 10795 10791 10787 10783 10779 10775 10770 10766 10763 10759 10755 10751 10747
10826 10829 10831 10833 10835 10837 10839 10840 10841 10842 10844 10845 10846 10847 10848 10848 10849 10850 10852 10852 10853 10854 10854 10854 10855 10855 10855 10855 10855 10855 10855 10855 10855 10854 10853 10852 10851 10850 10848 10847 10846 10846 10845 10844 10843 10842 10842 10841 10840 10838 10837 10835 10834 10832 10830 10828 10825 10823 10821 10818 10816 10813 10810 10807 10804 10802 10798 10795 10792 10789 10786 10783 10779 10775 10771 10767 10763 10759 10755 10751 10747 10744 10740 10736 10732
10819 10821 10823 10825 10827 10829 10831 10832 10834 10835 10836 10836 10837 10838 10839 10840 10841 10842 10843 10844 10844 10845 10845 10845 10846 10846 10846 10846 10846 10846 10846 10845 10845 10845 10844 10843 10842 10841 10840 10839 10838 10836 10835 10834 10833 10832 10831 10830 10828 10826 10824 10822 10819 10817 10815 10813 10810 10809 10807 10805 10802 10800 10798 10795 10792 10790 10787 10783 10779 10775 10772 10768 10765 10761 10758 10753 10749 10745 10740 10736 10732 10728 10723 10719 10714
10811 10813 10815 10817 10819 10821 10823 10824 10825 10826 10827 10828 10829 10830 10830 10831 10832 10833 10833 10834 10835 10835 10835 10836 10836 10837 10837 10837 10837 10836 10836 10836 10835 10835 10834 10833 10833 10832 10831 10829 10828 10827 10826 10825 10823 10822 10820 10818 10816 10814 10811 10809 10806 10804 10801 10799 10796 10794 10792 10790 10788 10786 10784 10781 10778 10775 10772 10768 10765 10761 10757 10753 10749 10745 10741 10737 10733 10729 10724 10720 10715 10710 10705 10700 10696
10802 10805 10807 10809 10810 10812 10813 10815 10816 10817 10818 10820 10820 10821 10822 10822 10823 10823 10824 10824 10824 10825 10825 10825 10825 10826 10826 10827 10827 10826 10826 10825 10825 10824 10823 10822 10822 10821 10820 10818 10817 10816 10815 10814 10812 10810 10808 10806 10804 10801 10798 10796 10793 10790 10787 10785 10782 10780 10778 10776 10773 10771 10768 10765 10762 10758 10755 10751 10747 10744 10740 10736 10733 10728 10724 10720 10715 10711 10707 10702 10697 10691 10686 10682 10677
10793 10796 10798 10800 10801 10803 10804 10805 10807 10808 10810 10811 10811 10812 10812 10813 10813 10814 10814 10814 10814 10814 10814 10815 10815 10815 10815 10815 10815 10815 10814 10814 10813 10813 10812 10811 10810 10809 10808 10806 10805 10804 10802 10801 10799 10797 10795 10792 10790 10787 10785 10782 10780 10777 10774 10772 10769 10767 10764 10761 10758 10755 10752 10749 10745 10741 10737 10733 10730 10727 10723 10720 10716 10711 10707 10702 10697 10693 10688 10683 10678 10673 10668 10663 10658
10784 10787 10789 10791 10792 10794 10795 10797 10798 10799 10800 10801 10802 10802 10803 10803 10803 10803 10803 10803 10803 10803 10804 10804 10804 10804 10804 10804 10803 10803 10802 10802 10801 10801 10800 10799 10798 10797 10795 10794 10792 10791 10789 10787 10785 10783 10781 10778 10776 10774 10772 10769 10767 10764 10762 10759 10756 10753 10749 10746 10743 10739 10735 10732 10728 10724 10720 10716 10713 10709 10706 10702 10697 10693 10688 10683 10678 10673 10668 10663 10658 10654 10648 10643 10638
10775 10777 10779 10781 10783 10785 10786 10788 10789 10790 10791 10791 10792 10792 10793 10793 10793 10793 10793 10793 10792 10792 10792 10793 10793 10793 10793 10792 10791 10791 10790 10790 10789 10789 10789 10788 10786 10784 10782 10781 10779 10777 10775 10773 10770 10768 10766 10765 10763 10761 10759 10756 10754 10751 10748 10744 10741 10738 10734 10730 10726 10722 10718 10714 10710 10706 10702 10699 10695 10691 10687 10683 10678 10673 10668 10663 10658 10653 10648 10643 10637 10632 10627 10622 10616
10766 10767 10769 10771 10773 10775 10777 10778 10779 10780 10781 10781 10782 10782 10782 10782 10782 10782 10782 10782 10782 10782 10782 10782 10782 10782 10781 10781 10780 10779 10778 10778 10777 10777 10776 10775 10773 10771 10769 10767 10765 10762 10760 10758 10756 10754 10752 10751 10748 10746 10744 10741 10738 10735 10732 10729 10725 10721 10717 10713 10709 10705 10700 10696 10692 10688 10684 10680 10676 10672 10667 10663 10658 10652 10647 10642 10637 10632 10626 10621 10616 10611 10605 10600 10594
10756 10757 10759 10761 10763 10765 10767 10768 10769 10770 10770 10770 10770 10771 10770 10770 10770 10771 10771 10771 10771 10771 10771 10771 10771 10770 10770 10769 10768 10767 10766 10765 10765 10764 10763 10762 10760 10758 10756 10753 10750 10748 10746 10744 10743 10741 10738 10736 10733 10730 10727 10724 10721 10718 10715 10711 10708 10704 10700 10696 10692 10687 10683 10678 10673 10669 10666 10662 10657 10653 10648 10643 10638 10633 10628 10622 10617 10611 10606 10600 10595 10589 10584 10578 10572
10747 10748 10750 10751 10753 10755 10756 10757 10758 10758 10758 10758 10758 10759 10758 10758 10758 10758 10758 10759 10759 10759 10759 10759 10758 10757 10757 10756 10755 10755 10754 10753 10752 10751 10749 10747 10745 10743 10741 10738 10736 10734 10733 10731 10728 10725 10723 10720 10717 10714 10711 10708 10705 10702 10698 10694 10690 10686 10682 10678 10674 10669 10665 10660 10655 10651 10647 10642 10638 10633 10628 10624 10618 10613 10608 10602 10597 10591 10585 10580 10574 10568 10563 10557 10551
10738 10740 10741 10742 10743 10745 10745 10746 10746 10746 10746 10746 10745 10745 10746 10746 10746 10746 10746 10746 10747 10747 10747 10746 10745 10745 10744 10743 10742 10741 10741 10739 10738 10736 10734 10733 10731 10729 10727 10725 10723 10721 10719 10716 10712 10709 10706 10704 10701 10698 10696 10692 10689 10685 10681 10677 10673 10669 10665 10661 10656 10652 10647 10641 10636 10632 10627 10623 10618 10613 10608 10603 10598 10593 10587 10582 10577 10571 10566 10560 10554 10548 10542 10537 10531
10728 10730 10730 10731 10732 10733 10733 10733 10733 10733 10733 10732 10732 10732 10732 10733 10733 10734 10734 10734 10734 10734 10734 10734 10734 10733 10732 10730 10729 10727 10725 10723 10722 10720 10719 10718 10716 10715 10713 10712 10709 10707 10704 10700 10697 10694 10691 10688 10686 10683 10680 10676 10673 10669 10665 10661 10657 10652 10648 10643 10639 10634 10629 10623 10618 10614 10609 10604 10599 10594 10589 10584 10578 10573 10568 10563 10557 10552 10546 10541 10535 10529 10524 10518 10512
10717 10717 10718 10718 10719 10719 10720 10720 10720 10720 10720 10720 10720 10720 10720 10720 10720 10721 10721 10720 10720 10721 10721 10721 10721 10720 10719 10717 10716 10714 10712 10709 10707 10706 10704 10703 10702 10700 10699 10697 10695 10692 10689 10685 10682 10679 10676 10673 10671 10667 10664 10660 10656 10653 10649 10644 10640 10635 10631 10626 10621 10617 10611 10606 10601 10596 10592 10587 10582 10577 10571 10566 10560 10555 10550 10545 10540 10534 10529 10523 10518 10512 10507 10501 10495
10704 10705 10705 10705 10705 10706 10706 10707 10707 10708 10708 10708 10708 10707 10707 10707 10707 10707 10707 10707 10707 10707 10707 10706 10706 10705 10704 10703 10701 10700 10698 10696 10694 10692 10690 10689 10687 10685 10684 10682 10679 10676 10674 10671 10668 10664 10661 10658 10655 10651 10648 10644 10640 10636 10632 10628 10623 10618 10614 10609 10604 10599 10595 10590 10585 10580 10575 10570 10565 10560 10555 10550 10545 10540 10534 10529 10524 10519 10513 10507 10502 10496 10490 10485 10479
10693 10693 10693 10693 10693 10693 10693 10694 10694 10695 10695 10695 10695 10695 10694 10694 10693 10693 10693 10693 10693 10692 10691 10691 10690 10689 10689 10688 10687 10685 10684 10682 10680 10678 10676 10675 10673 10670 10668 10665 10663 10660 10658 10655 10652 10649 10645 10642 10639 10635 10631 10627 10623 10619 10615 10611 10606 10602 10597 10592 10588 10583 10579 10574 10570 10565 10560 10555 10550 10545 10540 10535 10530 10525 10520 10515 10510 10504 10498 10492 10486 10481 10475 10470 10464
10682 10682 10682 10682 10682 10682 10682 10682 10682 10682 10682 10682 10682 10682 10681 10681 10680 10679 10679 10678 10678 10677 10676 10675 10674 10674 10673 10672 10671 10670 10668 10667 10665 10664 10662 10660 10658 10655 10653 10650 10647 10644 10641 10638 10635 10632 10628 10625 10622 10618 10615 10611 10607 10603 10599 10595 10590 10586 10581 10577 10572 10568 10564 10559 10555 10550 10545 10540 10535 10530 10526 10521 10516 10511 10506 10500 10495 10489 10483 10478 10472 10467 10461 10456 10450
10673 10673 10673 10673 10672 10672 10672 10672 10671 10671 10671 10670 10670 10669 10668 10668 10667 10666 10665 10664 10663 10662 10661 10660 10659 10658 10657 10656 10655 10654 10653 10651 10650 10648 10647 10645 10643 10640 10638 10635 10632 10629 10626 10623 10619 10616 10613 10610 10606 10603 10599 10596 10592 10588 10584 10580 10576 10571 10567 10562 10558 10553 10549 10545 10540 10535 10530 10526 10521 10517 10512 10507 10502 10497 10491 10485 10479 10474 10468 10463 10458 10453 10447 10441 10436
10665 10665 10664 10664 10663 10663 10663 10662 10661 10660 10660 10659 10658 10657 10656 10655 10655 10654 10652 10651 10650 10648 10647 10646 10645 10644 10643 10641 10640 10639 10637 10636 10634 10633 10631 10629 10627 10625 10623 10621 10618 10615 10612 10608 10605 10602 10599 10596 10592 10589 10585 10582 10578 10574 10570 10566 10562 10558 10554 10549 10545 10540 10536 10531 10527 10522 10517 10512 10508 10504 10499 10493 10488 10482 10476 10470 10465 10460 10455 10450 10444 10439 10433 10428 10423